User: anonymous   Login
Location: Unspecified
(0.0000°N, 0.0000°E)
Time: 10:45:48
(UTC+00:00)
Language:

OBJECT C - Orbit

View from above orbital plane
View from above orbital plane
View from above satellite
View from above satellite

Ground track
Ground track

The orbit data is extracted from the following two-line orbital elements,

1 42827U 17042C   18347.17681890  .00000313  00000-0  37112-4 0  9995
2 42827  97.5828 242.6321 0014407 327.0945  32.9376 14.90954672 76965
Epoch (UTC): 13 December 2018 04:14:37
Eccentricity: 0.0014407
inclination: 97.5828°
perigee height: 585 km
apogee height: 605 km
right ascension of ascending node: 242.6321°
argument of perigee: 327.0945°
revolutions per day: 14.90954672
mean anomaly at epoch: 32.9376°
orbit number at epoch: 7696

The dashed part of the orbit path shows where the satellite is in the earth's shadow,  

DLR